Regional Weather Roundup
Issued by NWS Charleston, SC

Current Version | Previous Version | Graphics & Text | Print | Product List | Glossary On
Versions: 1 2 3 4 5 6 7 8 9 10 11 12 13 14 15 16 17 18 19 20 21 22 23 24 25 26 27 28 29 30 31 32 33 34 35 36 37 38 39 40 41 42 43 44 45 46 47 48 49 50
485
ASUS42 KCHS 240827
RWRCHS

REGIONAL WEATHER ROUNDUP
NATIONAL WEATHER SERVICE CHARLESTON SC
400 AM EDT SAT JUN 24 2017

NOTE: "FAIR" INDICATES FEW OR NO CLOUDS BELOW 12,000 FEET WITH NO
SIGNIFICANT WEATHER AND/OR OBSTRUCTIONS TO VISIBILITY.

NOT ALL STATIONS ARE QUALITY CONTROLLED. USE DATA WITH CAUTION...
ESPECIALLY DEWPOINT OBSERVATIONS.

SCZ027-030-031-034>040-042>050-240900-
...SOUTHEAST SOUTH CAROLINA...

CITY           SKY/WX    TMP DP  RH WIND       PRES   REMARKS
N CHARLESTON   PTCLDY    79  74  84 SW10      29.96R
WATERFRONT PRK   N/A     81  77  88 SW10G22   29.93F
JOHNS ISLAND   CLOUDY    82  77  83 SW14G21   29.97R HX  91
PINOPOLIS        N/A     79  75  89 SW7G15    29.88S
MONCKS CORNER  FAIR      77  73  88 SW9       29.96R
SUMMERVILLE    FAIR      77  73  88 S3        29.97R
BEAUFORT MCAS  CLEAR     80  77  90 SW9       29.97S
BEAUFORT ARPT  FAIR      81  75  83 SW7       29.97R
HILTON HEAD IS MOCLDY    82  79  89 S14       29.98R HX  93
WALTERBORO     PTSUNNY   77  73  88 SW5       29.98R
ALLENDALE      CLOUDY    77  75  94 VRB3      29.96S

...SOUTHERN MIDLANDS AND PEE DEE...

CITY           SKY/WX    TMP DP  RH WIND       PRES   REMARKS
GEORGETOWN     FAIR      77  77 100 SW9G18    29.96S
KINGSTREE      FAIR      77  72  83 S8        29.95R
ORANGEBURG     MOCLDY    77  73  87 SW8       29.96R
BARNWELL       PTSUNNY   77  77 100 S6        29.96S
AIKEN          FAIR      75  72  88 SW6       29.98S
MANNING        FAIR      79  77  94 SW22      29.95S
COLUMBIA       CLEAR     79  73  82 SW12      29.92S
SUMTER         CLEAR     77  73  87 S12       29.91S
FLORENCE       PTCLDY    78  74  87 SW13      29.92S
MYRTLE BEACH   CLEAR     80  74  81 SW14G20   29.95R
N MYRTLE BEACH CLEAR     80  76  87 SW24G30   29.93S

$$

GAZ063-065-086>088-099>101-113>116-118-119-134>141-150-240900-
...SOUTHEAST GEORGIA...

CITY           SKY/WX    TMP DP  RH WIND       PRES   REMARKS
SAVANNAH ARPT  CLEAR     78  72  81 SW8       29.98S
HUNTER AAF     CLEAR     79  75  87 S8        29.94F
FORT STEWART   CLEAR     75  72  89 S6        29.96F
STATESBORO     MOCLDY    77  77 100 SW3       29.98S
SYLVANIA       CLOUDY    77  76  97 CALM      29.99S
CLAXTON        FAIR      74  73  98 CALM      29.99R FOG

...CSRA...CENTRAL AND FAR SOUTHEAST GEORGIA...

CITY           SKY/WX    TMP DP  RH WIND       PRES   REMARKS
THOMSON        CLEAR     76  71  83 NW5       30.00S
AUGUSTA-BUSH   CLEAR     80  75  84 SW3       29.94S
AUGUSTA-DANIEL CLEAR     80  72  76 SW5       29.96R
SWAINSBORO     FAIR      77  75  94 SW5       29.99S
VIDALIA        CLEAR     77  73  88 W6        30.00R
EASTMAN        FAIR      76  76 100 SW3       30.01F
HAZLEHURST       N/A     77  77 100 SW3       29.99S
ALMA           PTCLDY    75  73  93 SW3       29.99S
WAYCROSS       PTCLDY    76  76 100 S6        30.00S
JESUP          FAIR      73  70  88 SW3       30.00R
BAXLEY         FAIR      77  77 100 CALM      29.99S
BRUNSWICK      CLEAR     79  77  94 SW7       30.01S
SAINT SIMONS   CLEAR     80  76  87 SW9       30.00S

$$

SCZ027-028-034-036>038-045-046-048>050-GAZ119-141-240900-
...LAKE AND SUPPLEMENTAL COASTAL OBSERVATIONS...

STATION/POSITION TIME  TEMP    WIND        PRES    WAVE   SWELL
                       AIR SEA DIR/SP/G            HT/PER HT/PER/DIR
                 (UTC) (F)     (DEG/KT/KT) (MB)    (FT/S) (FT/S/D)
WINYAH BAY       0730   80     220/ 13     1014.0
LAKE MURRAY      0750   80     220/ 10/ 14 1012.2S
ACE BASIN NERRS  0745   80     180/  1     1015.0
FORT PULASKI     0800   81 84  220/ 14/ 19 1014.9
SAPELO ISLAND    0800   78     210/  6     1016.0

$$

ANZ835-935-AMZ111-154-330-350-352-354-370-450-454-472-240900-
...C-MAN AND BUOY OBSERVATIONS...

STATION/POSITION TIME  TEMP    WIND        PRES    WAVE   SWELL
                       AIR SEA DIR/SP/G            HT/PER HT/PER/DIR
                 (UTC) (F)     (DEG/KT/KT) (MB)    (FT/S) (FT/S/D)
BUOY 41004       0810   81 81  210/ 21/ 25 1014.5
BUOY 41008       0750   81 82  190/ 17/ 21 1015.2F   5/ 5   2/ 80/ 8
FOLLY BEACH CMAN 0800   81     210/ 22/ 28 1015.2S
CAPERS NEARSHORE 0808   85 82  230/ 21/ 29 1014.0F
FRIPP NEARSHORE  0808   82 83  210/ 21/ 27 1014.1F


STATION/POSITION TIME  TEMP    WIND        PRES    WAVE   SWELL
                       AIR SEA DIR/SP/G            HT/PER HT/PER/DIR
                 (UTC) (F)     (DEG/KT/KT) (MB)    (FT/S) (FT/S/D)
5E ST. MARYS GA  0800      80                N/A     3/ 9
FRYING PAN BUOY  0810   81 80  210/ 23/ 29 1014.0
BUOY 41025       0750   81 80  220/ 23/ 29 1012.5F   7/ 6   2/100/13
CAPE LOOKOUT NC  0800   80     220/ 18/ 23 1013.1S
BUOY 41002       0750   81 81  210/ 16/ 19 1017.4F   4/ 8   2/110/ 8
BUOY 41010       0810   82 83  170/ 14/ 16 1017.1
ST AUGUSTINE FL  0800   77 78  180/  6/  7 1016.5F


$$




USA.gov is the U.S. government's official web portal to all federal, state and local government web resources and services.